Wetbulb
70.96 72.82 72.65 72.15 72.67 73.19 72.40 72.13 72.53 72.56 72.53 72.77 72.55 72.37 71.64 70.96 70.12 69.04 68.21 67.62 67.40 67.73 67.84 67.85 67.73 67.68 67.71 67.58 67.57 67.78 68.70 68.90 68.86 68.53 70.29 69.70 69.12 68.78 69.26 68.91 69.22 68.87 67.97
72.47 72.40 72.35 72.59 73.04 72.23 71.92 72.27 72.21 72.35 71.75 71.39 70.60 69.64 68.56 67.47 66.89 66.45 66.29 66.26 66.27 66.28 66.28 66.29 66.15 66.08 66.15 66.08 65.94 66.07 66.45 66.68 66.61 66.36 65.41 69.08 69.73 69.25 69.92 70.39 69.66 69.15 70.81
72.18 71.45 71.00 73.01 72.51 71.84 72.11 72.14 71.75 70.83 69.85 68.84 67.91 66.92 66.65 66.47 66.21 65.96 65.90 65.97 66.19 66.31 66.28 66.06 65.87 65.74 65.78 65.80 65.85 65.86 65.69 65.08 64.47 63.66 64.57 65.35 69.52 69.61 70.02 69.67 70.18 70.70 71.04
71.81 70.83 70.53 72.69 72.17 72.10 72.09 71.54 70.27 68.90 67.75 66.63 66.08 66.06 66.09 65.79 65.55 65.23 65.16 65.09 65.29 65.54 65.60 65.57 65.48 65.39 65.16 64.91 65.28 65.21 64.81 63.85 63.21 63.71 62.56 60.98 61.43 66.87 64.46 65.87 67.19 68.42 69.04
70.33 70.34 71.37 72.69 72.35 72.22 71.74 70.27 68.47 66.88 65.73 65.17 65.42 65.58 65.44 65.12 64.65 64.43 64.41 64.39 64.66 64.65 64.64 64.57 64.46 64.10 63.83 63.96 64.14 64.09 63.72 63.05 62.96 62.82 61.32 62.31 61.03 63.29 64.66 65.24 65.60 66.21 66.85
69.79 71.15 71.77 72.56 72.68 72.13 70.58 68.44 66.44 65.35 64.85 64.79 65.04 65.03 65.03 64.45 64.16 63.94 63.82 63.60 63.60 63.45 63.54 63.75 63.50 63.14 62.93 63.05 63.39 63.54 63.16 62.57 62.26 60.99 60.93 61.62 61.27 63.29 64.86 65.50 66.02 67.13 66.52
69.99 70.58 71.29 72.75 72.16 70.88 68.73 66.39 65.66 65.32 65.13 64.81 64.67 64.78 64.33 63.89 63.70 63.52 62.97 62.54 62.38 62.65 62.88 62.79 62.31 61.71 61.53 62.24 63.01 63.00 62.27 61.59 60.83 60.59 60.69 61.20 61.30 65.72 64.92 67.99 68.70 69.23 68.63
69.63 70.00 71.05 71.19 71.21 69.26 66.91 66.01 65.20 64.88 64.73 64.80 64.64 64.07 63.41 63.00 62.99 62.83 61.59 61.39 61.80 62.05 61.59 60.61 59.99 59.60 59.87 61.03 62.00 61.99 61.27 60.78 60.81 60.26 60.61 61.38 65.20 67.26 67.68 67.02 66.97 67.36 67.91
69.91 69.94 71.13 70.72 68.23 66.89 66.44 66.17 64.79 64.04 63.80 63.39 62.80 62.23 61.97 61.63 61.82 61.04 60.47 60.74 61.11 60.70 60.17 59.73 59.12 58.67 58.01 59.49 60.68 60.77 60.47 60.74 59.93 60.57 60.61 61.37 65.11 66.12 66.14 65.65 65.57 65.88 66.88
69.39 70.22 70.11 69.05 66.05 63.11 62.53 64.98 64.06 62.77 62.02 61.30 60.33 59.78 60.04 61.04 60.82 58.54 60.11 59.15 59.58 59.50 59.11 58.87 58.85 58.26 56.69 55.62 57.93 59.20 59.87 60.92 60.22 60.90 61.29 62.25 65.74 65.10 65.58 65.27 65.23 65.26 65.25
69.31 69.74 69.69 68.25 64.54 61.73 61.11 61.63 61.26 60.95 60.67 59.34 58.05 58.66 59.03 58.30 58.26 57.45 56.74 57.23 57.22 57.19 57.36 57.56 57.26 56.93 58.12 57.98 56.47 58.11 59.45 59.75 59.96 60.28 60.85 63.89 64.36 65.16 65.16 64.66 64.36 64.53 64.62
67.35 68.13 68.35 65.62 62.55 60.79 59.62 60.41 59.48 58.49 58.33 57.47 57.49 57.42 57.72 57.34 56.53 57.01 56.14 55.68 55.39 55.38 56.33 56.24 56.53 58.45 58.86 55.29 56.23 58.85 57.98 59.21 59.74 60.04 60.77 63.94 63.93 65.14 64.70 63.82 63.12 62.99 63.02
67.41 68.18 67.05 63.81 61.59 59.53 59.19 59.45 59.28 58.64 57.45 57.28 56.95 56.92 57.02 57.38 57.74 57.83 57.73 57.42 57.37 57.44 56.58 57.59 57.16 55.93 55.56 56.75 56.80 56.94 57.67 58.84 59.47 60.24 61.73 63.78 64.13 64.96 64.32 63.22 62.19 62.09 62.16
66.91 66.70 65.59 63.21 61.26 60.10 59.51 59.36 58.86 57.72 57.29 57.05 56.75 56.85 57.42 57.11 57.06 57.04 57.04 57.25 56.92 56.79 56.17 56.55 55.82 55.87 55.61 56.77 57.10 56.92 57.72 58.71 59.28 60.13 60.99 63.28 63.33 62.86 62.64 61.81 61.35 61.59 61.87
65.47 65.78 64.03 62.22 61.49 59.99 59.44 59.06 58.60 56.93 57.16 57.16 57.23 56.92 57.65 57.13 56.63 57.08 57.14 56.92 56.72 56.78 56.20 55.90 55.72 55.60 55.47 56.23 57.30 57.40 57.83 58.57 59.18 60.16 61.28 60.88 61.36 60.54 60.33 60.20 60.30 60.71 62.28
65.94 65.39 63.21 61.36 61.17 60.11 59.28 58.97 57.99 57.44 57.02 57.34 57.41 57.21 57.16 57.33 56.94 57.04 57.05 56.73 56.50 56.62 56.52 56.21 55.69 55.72 55.64 55.60 57.13 57.64 57.99 58.79 59.69 60.35 60.48 59.23 60.21 59.10 58.96 59.50 59.89 59.88 60.27
66.59 65.70 62.23 61.05 60.73 59.54 59.10 59.01 57.88 57.34 56.88 56.97 57.03 57.07 56.80 57.14 56.87 56.88 57.03 56.71 56.59 56.99 56.78 56.65 56.05 56.37 55.86 55.64 55.85 57.34 58.25 58.69 58.99 58.94 59.04 59.24 58.85 58.92 58.44 58.19 58.70 58.92 59.32
66.62 64.73 62.38 60.20 59.90 59.39 58.95 58.62 57.83 57.17 57.07 56.83 56.98 57.02 56.51 56.37 56.67 56.64 56.88 56.41 56.82 57.21 57.01 56.32 55.96 55.50 55.36 55.07 54.31 56.01 57.47 58.37 58.34 58.36 58.48 58.54 59.23 58.72 58.76 57.91 57.46 57.10 57.35
66.94 63.91 60.88 60.10 59.80 59.01 58.74 58.60 57.95 57.47 57.00 56.80 56.75 56.76 56.23 56.07 56.32 56.64 56.92 56.56 56.75 57.04 56.74 56.23 55.94 55.30 54.41 54.56 54.13 54.52 56.54 57.24 57.81 57.73 57.44 57.49 58.33 58.79 58.63 58.44 56.93 57.09 56.07
61.90 58.99 57.92 58.74 59.46 58.65 58.19 57.97 57.83 57.51 57.10 56.43 56.20 56.37 56.26 56.57 56.18 56.80 57.24 56.54 56.76 56.58 56.07 56.02 54.70 55.43 54.82 54.04 53.13 54.08 55.60 56.82 57.22 57.43 55.79 55.88 57.18 57.55 57.15 56.68 56.41 55.91 56.55
58.99 57.42 56.89 56.59 58.50 57.81 57.33 56.76 56.55 55.86 56.62 56.23 56.45 56.23 56.13 56.13 56.32 57.21 56.59 56.42 56.37 55.60 55.26 55.11 54.63 54.07 54.06 54.25 52.99 52.54 54.73 55.45 54.97 55.83 55.87 55.27 55.78 56.01 56.07 55.88 55.22 55.11 55.12
59.73 58.25 56.11 56.13 56.66 57.06 57.34 58.38 59.15 58.60 57.27 57.07 56.89 55.99 56.65 56.53 56.90 55.33 55.76 55.41 55.44 55.04 54.72 54.31 54.03 52.83 53.25 54.05 50.40 50.71 48.79 50.91 53.32 53.22 54.54 53.98 54.32 55.67 54.70 54.96 54.57 54.81 54.95
60.14 58.54 56.65 56.03 56.60 56.49 57.18 55.98 56.47 56.68 56.59 55.18 55.16 55.61 55.98 55.70 55.48 55.35 54.82 54.45 54.54 54.64 53.87 54.12 53.43 52.52 50.62 52.71 53.13 49.68 46.42 45.51 47.94 53.04 52.99 53.13 52.75 53.24 53.66 54.11 54.26 54.49 54.54
61.42 60.81 59.05 57.07 56.33 56.68 56.96 55.63 54.68 55.37 55.03 55.84 55.67 55.93 54.95 54.78 54.20 53.79 53.71 53.30 53.34 53.44 52.71 52.77 52.38 52.48 52.06 49.90 51.94 52.13 52.00 50.39 45.91 45.19 51.29 51.72 53.52 52.41 53.21 53.82 53.57 53.91 53.94
58.38 59.02 58.69 57.73 56.98 57.22 56.89 57.27 57.16 56.55 56.07 55.53 55.17 54.26 53.65 53.47 53.06 52.24 52.32 52.04 51.51 51.78 51.86 51.51 51.63 51.32 51.72 50.21 50.24 50.15 50.15 50.58 50.54 47.80 45.30 48.10 51.07 52.31 52.50 52.97 53.04 53.09 53.73
54.04 53.93 57.18 56.59 55.66 56.03 56.12 56.13 56.37 55.72 54.37 53.59 53.68 52.70 52.36 52.46 52.19 51.39 51.38 51.23 51.53 50.89 50.47 50.84 51.17 51.09 50.52 50.28 50.29 50.00 48.88 47.48 47.25 47.10 45.79 46.59 46.86 48.91 51.28 52.03 52.16 52.87 53.51
MSLP
1011.79 1013.32 1014.06 1014.39 1014.68 1014.89 1015.10 1015.34 1015.51 1015.59 1015.65 1015.67 1015.74 1015.82 1015.95 1016.05 1016.08 1016.08 1016.10 1016.06 1016.01 1015.95 1015.90 1015.88 1015.85 1015.79 1015.72 1015.63 1015.54 1015.46 1015.36 1015.28 1015.23 1015.12 1014.90 1014.74 1014.64 1014.58 1014.41 1014.29 1014.21 1013.70 1013.96
1011.84 1013.32 1014.15 1014.53 1014.81 1015.06 1015.34 1015.60 1015.77 1015.84 1015.88 1015.93 1016.16 1016.26 1016.36 1016.45 1016.47 1016.41 1016.36 1016.30 1016.26 1016.21 1016.15 1016.09 1016.03 1015.96 1015.90 1015.79 1015.66 1015.53 1015.41 1015.38 1015.30 1015.20 1014.98 1014.64 1014.61 1014.67 1014.46 1014.31 1014.25 1013.99 1013.97
1012.33 1013.44 1014.12 1014.64 1015.04 1015.30 1015.55 1015.81 1015.98 1016.12 1016.22 1016.35 1016.46 1016.56 1016.65 1016.73 1016.77 1016.75 1016.64 1016.55 1016.47 1016.43 1016.41 1016.34 1016.26 1016.18 1016.13 1016.04 1015.90 1015.74 1015.60 1015.53 1015.41 1015.19 1014.87 1014.35 1014.02 1014.47 1014.49 1014.47 1014.33 1014.12 1013.91
1012.51 1013.22 1014.08 1014.83 1015.24 1015.52 1015.73 1015.93 1016.19 1016.38 1016.49 1016.63 1016.73 1016.83 1016.92 1017.00 1017.01 1017.05 1016.95 1016.88 1016.77 1016.70 1016.66 1016.57 1016.49 1016.40 1016.37 1016.27 1016.12 1015.99 1015.86 1015.72 1015.48 1015.17 1014.42 1014.12 1014.20 1014.39 1014.61 1014.53 1014.33 1014.08 1013.91
1012.32 1013.00 1014.37 1015.01 1015.33 1015.64 1015.92 1016.19 1016.41 1016.57 1016.70 1016.84 1016.96 1017.07 1017.13 1017.23 1017.26 1017.28 1017.28 1017.23 1017.15 1017.05 1016.96 1016.85 1016.82 1016.68 1016.59 1016.49 1016.35 1016.20 1016.05 1015.88 1015.56 1015.19 1014.61 1014.58 1014.87 1014.49 1014.61 1014.43 1014.17 1014.02 1013.92
1012.44 1013.32 1014.76 1015.14 1015.45 1015.79 1016.18 1016.41 1016.60 1016.77 1016.87 1017.02 1017.17 1017.30 1017.34 1017.40 1017.45 1017.51 1017.55 1017.54 1017.50 1017.39 1017.30 1017.15 1017.11 1016.97 1016.82 1016.68 1016.53 1016.37 1016.23 1016.04 1015.60 1014.75 1014.76 1014.72 1014.70 1015.08 1014.80 1014.45 1014.20 1013.95 1013.81
1012.61 1013.83 1014.76 1015.24 1015.61 1016.01 1016.33 1016.58 1016.77 1016.94 1017.11 1017.24 1017.33 1017.51 1017.64 1017.63 1017.68 1017.77 1017.87 1017.84 1017.79 1017.70 1017.63 1017.50 1017.39 1017.25 1017.10 1016.89 1016.72 1016.58 1016.42 1016.16 1015.57 1014.87 1014.88 1014.87 1015.26 1015.18 1014.75 1014.54 1014.41 1014.05 1013.83
1012.88 1013.96 1014.85 1015.55 1015.86 1016.23 1016.52 1016.80 1017.03 1017.17 1017.39 1017.51 1017.64 1017.79 1017.95 1018.01 1018.03 1018.06 1018.14 1018.09 1018.05 1017.97 1017.92 1017.81 1017.66 1017.45 1017.31 1017.06 1016.90 1016.79 1016.59 1016.19 1015.13 1015.00 1015.04 1015.00 1015.51 1015.12 1014.90 1014.84 1014.69 1014.42 1014.27
1013.18 1014.03 1014.93 1015.61 1016.23 1016.61 1016.86 1017.10 1017.35 1017.53 1017.74 1017.87 1018.01 1018.17 1018.28 1018.40 1018.43 1018.43 1018.42 1018.39 1018.35 1018.23 1018.16 1018.02 1017.83 1017.61 1017.44 1017.25 1017.07 1016.87 1016.59 1016.11 1015.69 1015.32 1015.05 1015.35 1015.76 1015.22 1015.13 1015.18 1015.00 1014.72 1014.57
1013.86 1014.26 1015.05 1015.58 1016.05 1016.62 1017.11 1017.49 1017.69 1017.85 1018.05 1018.25 1018.44 1018.45 1018.49 1018.52 1018.60 1018.65 1018.51 1018.77 1018.65 1018.49 1018.39 1018.25 1018.01 1017.79 1017.44 1017.27 1017.14 1016.89 1016.50 1016.09 1015.30 1015.27 1015.30 1016.07 1015.92 1015.46 1015.50 1015.54 1015.33 1015.13 1014.92
1013.94 1014.54 1015.00 1015.14 1015.72 1016.34 1017.00 1017.73 1017.87 1018.06 1018.23 1018.42 1018.62 1018.59 1018.43 1017.91 1018.13 1018.47 1019.05 1018.95 1018.81 1018.66 1018.57 1018.40 1018.06 1017.64 1017.07 1016.96 1016.95 1016.65 1016.36 1015.66 1015.43 1015.50 1015.78 1016.39 1015.94 1015.74 1015.93 1015.96 1015.80 1015.53 1015.27
1014.35 1014.77 1014.92 1015.33 1015.84 1016.32 1016.88 1017.23 1017.29 1017.68 1017.43 1017.69 1017.82 1017.94 1017.95 1018.21 1018.51 1018.49 1018.75 1018.76 1018.66 1018.42 1018.37 1018.04 1017.72 1017.28 1016.90 1016.72 1016.53 1016.30 1016.01 1015.78 1015.63 1015.70 1016.41 1016.59 1016.18 1016.01 1016.12 1016.25 1016.15 1015.93 1015.60
1014.45 1014.62 1015.10 1015.56 1015.98 1016.43 1016.68 1016.97 1017.14 1017.52 1017.55 1017.71 1017.86 1017.98 1018.17 1018.15 1018.18 1018.18 1018.13 1018.23 1018.18 1018.10 1017.86 1017.67 1017.33 1017.20 1017.06 1016.94 1016.78 1016.43 1016.32 1016.02 1015.77 1015.82 1016.76 1016.79 1016.50 1016.37 1016.37 1016.45 1016.45 1016.21 1015.87
1014.57 1014.92 1015.36 1015.75 1016.15 1016.48 1016.72 1016.58 1017.02 1017.42 1017.54 1017.77 1018.06 1018.14 1018.09 1018.13 1018.19 1018.17 1018.22 1018.26 1018.24 1018.11 1018.02 1017.79 1017.54 1017.33 1017.10 1016.97 1016.87 1016.60 1016.35 1016.16 1016.02 1016.06 1016.85 1017.02 1016.88 1016.76 1016.77 1016.80 1016.66 1016.37 1016.16
1014.91 1015.01 1015.65 1016.09 1016.39 1016.66 1016.55 1016.70 1017.00 1017.60 1017.57 1018.02 1018.26 1018.38 1018.33 1018.38 1018.42 1018.32 1018.39 1018.39 1018.46 1018.39 1018.18 1017.94 1017.71 1017.44 1017.13 1017.06 1016.95 1016.79 1016.51 1016.37 1016.21 1016.20 1016.67 1017.21 1017.23 1017.10 1016.99 1016.99 1016.89 1016.67 1016.32
1014.79 1015.05 1015.74 1016.20 1016.56 1016.74 1016.80 1016.84 1017.14 1017.43 1017.86 1018.04 1018.40 1018.61 1018.81 1018.76 1018.79 1018.75 1018.53 1018.64 1018.68 1018.65 1018.42 1018.18 1017.88 1017.60 1017.29 1017.14 1017.00 1016.86 1016.64 1016.54 1016.45 1016.47 1016.48 1017.02 1017.33 1017.36 1017.21 1017.13 1017.06 1016.93 1016.68
1014.45 1014.92 1015.64 1016.22 1016.53 1016.88 1017.13 1017.11 1017.35 1017.74 1017.82 1018.19 1018.46 1018.69 1018.85 1018.98 1018.98 1018.95 1018.89 1018.85 1018.98 1018.99 1018.77 1018.46 1018.18 1017.82 1017.57 1017.35 1017.15 1017.05 1016.85 1016.74 1016.72 1016.67 1016.79 1016.87 1017.12 1017.18 1017.20 1017.22 1017.22 1017.09 1016.92
1014.10 1014.66 1015.40 1015.96 1016.54 1016.82 1017.12 1017.40 1017.48 1017.82 1017.91 1018.20 1018.56 1018.70 1018.93 1019.09 1019.20 1019.01 1018.89 1018.95 1019.13 1019.04 1018.91 1018.69 1018.48 1018.26 1017.90 1017.75 1017.50 1017.22 1017.13 1016.99 1016.91 1016.86 1016.96 1017.05 1016.91 1016.85 1017.00 1017.04 1017.04 1016.97 1016.92
1013.37 1014.42 1015.34 1016.00 1016.55 1016.85 1017.11 1017.31 1017.68 1017.91 1018.10 1018.28 1018.63 1018.75 1019.09 1019.21 1019.24 1019.13 1019.10 1019.10 1019.15 1019.12 1018.96 1018.96 1018.71 1018.56 1018.31 1018.08 1017.76 1017.44 1017.29 1017.20 1017.08 1017.00 1016.98 1017.06 1017.11 1017.19 1017.01 1016.92 1016.92 1016.79 1016.81
1014.31 1015.16 1015.76 1016.18 1016.74 1017.07 1017.26 1017.49 1017.81 1018.26 1018.52 1018.58 1018.60 1018.65 1019.17 1019.32 1019.37 1019.34 1019.30 1019.30 1019.36 1019.24 1019.18 1019.21 1019.13 1018.93 1018.58 1018.47 1018.00 1017.28 1017.28 1017.38 1017.36 1017.26 1017.26 1017.13 1017.08 1017.35 1017.29 1017.10 1016.84 1016.57 1016.62
1015.56 1015.71 1016.02 1016.25 1016.93 1017.29 1017.33 1017.42 1017.83 1018.38 1018.83 1018.91 1018.87 1019.08 1019.15 1019.24 1019.54 1019.47 1019.42 1019.51 1019.61 1019.56 1019.62 1019.50 1019.39 1019.19 1018.87 1018.78 1018.06 1017.62 1016.93 1017.14 1017.35 1017.33 1017.09 1017.21 1017.13 1017.19 1017.25 1017.08 1016.88 1016.57 1016.41
1015.84 1016.25 1016.87 1017.35 1017.54 1017.50 1017.41 1017.06 1017.60 1018.28 1018.79 1018.98 1019.23 1019.43 1019.45 1019.48 1019.67 1019.74 1019.74 1019.74 1019.86 1019.98 1019.78 1019.87 1019.77 1019.66 1019.23 1019.12 1019.02 1018.13 1017.33 1017.01 1017.00 1017.01 1017.12 1017.28 1017.16 1017.01 1016.89 1016.84 1016.68 1016.45 1016.31
1015.65 1016.24 1016.50 1017.39 1017.95 1017.80 1016.98 1016.95 1017.99 1018.82 1019.20 1019.24 1019.30 1019.68 1019.67 1019.75 1019.95 1020.15 1020.14 1020.07 1020.02 1020.06 1020.17 1020.22 1020.16 1020.02 1019.87 1019.47 1019.39 1019.33 1018.40 1017.92 1017.89 1016.88 1016.85 1017.20 1017.22 1017.14 1016.93 1016.72 1016.57 1016.28 1016.06
1015.39 1016.13 1016.32 1017.60 1018.36 1017.78 1017.59 1017.80 1017.59 1018.10 1018.38 1018.53 1018.98 1019.65 1019.85 1020.05 1020.22 1020.42 1020.40 1020.46 1020.27 1020.26 1020.45 1020.50 1020.36 1020.35 1020.17 1019.90 1019.65 1019.47 1019.57 1019.41 1018.79 1017.84 1017.13 1017.23 1016.85 1016.94 1016.82 1016.57 1016.42 1016.22 1015.91
1015.45 1016.06 1016.86 1017.48 1017.81 1017.75 1017.88 1017.67 1017.53 1017.68 1018.35 1018.75 1019.29 1019.86 1020.10 1020.39 1020.49 1020.61 1020.62 1020.71 1020.64 1020.50 1020.81 1020.81 1020.69 1020.51 1020.46 1020.22 1020.06 1019.86 1019.56 1019.37 1019.09 1018.85 1017.99 1017.32 1017.14 1016.89 1016.73 1016.58 1016.35 1016.20 1015.95
1015.17 1016.42 1017.04 1017.54 1017.73 1018.12 1017.95 1017.78 1017.54 1017.88 1018.54 1018.99 1019.38 1019.95 1020.16 1020.38 1020.53 1020.66 1020.76 1020.91 1020.81 1020.89 1021.06 1020.99 1020.84 1020.68 1020.59 1020.42 1020.28 1020.12 1019.81 1019.66 1019.29 1019.03 1018.52 1017.88 1017.56 1017.04 1016.72 1016.41 1016.20 1015.91 1015.72
Wind_Speed
16 17 16 16 13 12 13 12 10 10 9 11 15 14 14 13 13 13 13 13 13 12 12 12 11 11 11 11 10 10 11 10 10 10 7 6 5 5 6 7 8 10 5
19 18 16 15 13 14 13 11 10 12 12 14 13 13 13 13 13 12 12 12 12 12 12 11 11 11 11 11 10 10 10 10 10 10 9 10 5 3 6 7 7 10 12
20 17 17 14 14 14 13 11 13 13 13 13 12 12 12 12 12 12 13 13 12 12 12 12 11 11 11 11 11 11 11 11 11 11 12 9 3 3 8 12 11 11 12
17 16 16 15 15 14 12 14 13 12 13 12 12 12 12 12 12 12 12 12 11 11 11 11 11 11 12 11 11 11 11 12 12 12 9 8 8 10 8 11 12 13 13
17 16 16 15 15 14 15 14 13 12 12 11 11 11 11 11 11 11 11 11 11 11 11 11 11 11 11 12 11 11 11 12 13 13 7 7 6 10 13 12 12 12 12
16 17 15 15 14 15 15 14 13 12 12 11 11 10 11 11 11 11 11 11 10 10 10 11 11 11 11 11 11 11 11 12 17 7 6 6 6 12 12 12 12 13 11
16 17 15 14 17 16 15 14 13 12 11 11 10 10 11 11 11 11 10 11 10 10 11 11 11 11 11 10 10 11 11 12 9 6 6 6 9 11 9 12 15 13 11
17 16 15 14 16 15 14 14 12 12 12 11 11 11 10 11 11 11 11 11 10 11 11 11 11 11 11 10 10 10 10 11 9 7 6 5 11 12 11 14 14 14 14
16 13 13 14 14 13 13 13 12 12 12 12 11 11 11 11 10 11 11 10 10 10 10 11 11 11 10 9 9 10 10 11 9 5 6 8 13 10 13 13 12 12 13
12 12 11 14 13 12 11 12 12 12 12 11 10 9 10 10 9 8 7 10 9 9 10 10 11 11 8 5 5 8 11 12 4 5 7 7 13 11 12 12 13 13 13
9 11 11 12 11 11 11 10 11 11 11 11 8 5 9 5 6 9 7 7 8 6 7 7 8 8 12 8 2 5 10 4 5 5 7 11 11 11 12 13 14 14 13
10 10 12 11 10 10 8 10 8 8 6 6 5 4 4 6 5 5 5 3 1 2 5 4 5 8 6 7 4 4 4 5 4 4 7 10 10 10 12 13 13 14 13
11 11 12 11 10 9 7 6 4 4 4 4 5 4 4 3 2 2 3 3 4 4 5 6 6 6 9 6 6 5 5 4 3 3 8 11 10 12 13 14 14 13 12
12 9 11 10 9 8 6 5 6 4 4 4 4 4 2 2 3 3 3 4 5 5 7 6 5 7 8 8 7 6 5 4 3 3 8 10 11 12 12 13 14 13 11
10 11 11 9 8 8 6 5 5 5 4 5 4 3 2 3 4 4 4 4 4 5 5 6 6 7 8 8 7 6 6 6 5 2 6 10 9 10 10 11 13 15 14
11 12 11 10 8 7 6 7 5 5 6 4 4 3 3 3 3 3 3 4 5 5 5 6 6 6 6 7 6 6 6 5 4 4 3 7 7 8 9 10 12 13 15
14 14 12 10 8 7 6 5 5 4 5 4 4 4 3 2 3 3 3 4 4 4 6 5 7 6 6 6 7 5 5 6 4 4 4 4 6 7 5 5 9 10 12
15 16 14 11 10 9 7 5 4 4 3 4 3 3 3 3 3 2 2 4 4 4 4 5 5 6 5 6 6 5 4 3 4 4 3 4 4 5 4 2 3 5 7
17 15 13 12 11 10 9 6 4 4 3 3 3 3 2 3 2 2 3 3 4 3 4 5 5 5 6 6 6 4 4 4 3 3 5 5 4 4 4 1 2 6 4
10 13 8 6 10 10 7 6 4 3 1 2 3 2 3 1 1 2 2 3 4 4 4 5 7 6 5 6 8 6 2 3 3 3 6 6 4 5 5 5 5 4 8
9 10 6 4 8 6 6 6 4 4 3 3 2 3 2 3 2 2 3 3 4 4 4 6 5 7 5 6 5 6 3 3 3 3 4 4 4 4 5 5 4 4 5
11 8 7 4 5 5 4 3 3 3 2 3 3 3 3 3 3 3 4 4 5 4 6 6 6 5 4 5 5 6 3 0 2 6 3 4 5 4 6 6 7 7 5
10 8 7 8 7 3 3 6 4 4 3 3 4 3 3 3 4 4 4 4 5 4 4 5 5 6 4 5 6 3 4 4 8 3 3 3 5 5 6 6 9 7 7
7 7 9 9 11 8 5 4 8 5 4 2 4 3 4 4 5 5 4 5 5 4 5 5 5 4 4 5 5 2 3 5 3 5 4 8 2 5 7 4 6 7 7
5 5 6 7 8 7 6 6 3 5 4 4 4 5 4 4 4 5 5 5 5 4 4 5 5 5 4 4 4 4 5 5 6 5 8 6 7 6 6 5 7 7 7
8 2 3 7 8 8 5 4 6 7 6 5 4 4 3 3 3 5 4 4 4 5 5 4 4 5 5 4 4 5 5 4 6 6 8 9 10 7 7 7 6 4 5
Wind_Direction
137 135 142 145 144 122 109 105 95 82 76 81 77 72 67 64 62 57 50 46 41 39 35 32 27 23 21 18 14 11 20 17 11 5 340 307 307 334 338 332 321 310 17
128 140 142 144 138 120 115 108 100 94 78 69 71 73 71 66 61 57 51 45 39 34 30 26 23 19 15 12 9 5 7 7 356 341 325 287 238 292 333 327 315 306 317
128 136 144 141 129 126 122 115 97 90 87 85 80 77 73 69 64 57 54 50 46 40 34 31 27 23 17 11 8 9 8 4 350 331 305 279 180 172 349 341 329 312 308
141 145 139 133 135 132 127 112 102 97 91 87 84 80 76 70 65 59 54 49 46 41 33 28 24 22 17 11 8 6 2 355 340 317 300 344 339 56 3 332 326 321 323
140 137 125 138 138 135 121 111 106 101 96 93 89 86 78 74 67 62 53 49 46 40 34 28 22 20 15 8 5 4 359 350 329 301 356 28 321 25 353 334 328 328 323
141 125 137 139 140 124 118 113 108 104 102 100 96 90 82 77 72 65 59 51 44 39 31 29 22 16 12 6 1 358 355 346 321 14 359 16 353 355 337 335 332 329 322
135 130 144 143 129 122 119 114 110 105 101 101 100 92 85 82 75 68 60 51 44 39 34 30 22 14 9 4 1 358 353 339 311 8 4 9 26 346 342 11 15 6 2
132 144 139 129 120 121 118 115 110 106 103 100 97 93 84 78 76 71 59 51 45 42 35 26 19 14 5 4 1 357 347 329 317 31 1 38 12 339 33 22 13 18 21
130 134 139 131 116 109 113 111 110 105 104 102 99 95 88 81 76 70 57 51 45 42 32 24 15 9 3 3 355 351 333 311 309 25 6 38 356 6 24 14 10 13 17
144 135 137 135 137 133 124 107 106 107 105 101 104 112 122 115 106 64 76 48 42 36 25 15 9 0 347 336 354 335 308 292 356 22 56 23 348 20 27 20 16 13 12
139 131 153 146 144 135 131 123 115 117 121 125 128 172 188 94 98 87 69 53 42 31 20 8 356 329 306 238 199 297 293 11 22 20 56 11 1 33 37 29 17 13 15
146 155 151 141 144 135 139 164 130 149 140 130 131 132 92 78 72 78 114 153 128 319 245 268 274 290 334 3 2 257 11 357 29 33 59 15 8 44 44 29 14 8 4
167 148 148 146 143 144 142 148 134 128 125 113 111 105 94 99 101 73 55 38 13 5 13 4 6 16 10 7 6 359 4 9 16 39 55 22 28 44 40 28 10 3 3
152 156 147 149 149 151 145 157 130 135 127 120 109 111 114 95 68 47 35 26 20 11 8 11 4 7 13 5 9 359 16 25 14 25 76 37 47 41 33 20 14 9 6
159 162 153 152 154 156 160 139 125 134 133 114 106 82 70 62 44 38 29 29 29 6 9 2 5 2 12 3 12 7 19 20 20 17 99 70 47 45 37 25 22 16 6
166 160 154 160 163 159 158 145 134 135 123 118 119 104 77 70 40 24 36 30 22 13 3 354 2 1 2 1 5 8 6 22 17 27 27 108 94 60 35 27 16 11 12
173 162 162 160 156 156 151 138 132 130 133 132 133 139 107 69 60 32 26 25 25 12 357 356 4 351 355 359 351 8 7 1 357 15 25 357 146 133 103 44 8 356 357
172 169 166 158 166 160 146 149 139 154 140 134 150 145 135 101 33 33 24 35 15 5 357 358 1 350 351 356 345 351 345 349 340 351 340 343 355 347 163 120 22 333 334
170 161 162 159 166 163 153 142 137 125 162 139 159 148 143 119 53 356 18 24 7 2 1 352 353 358 346 350 329 331 324 319 319 312 330 331 322 300 331 43 243 258 277
131 147 141 155 167 158 146 135 130 132 164 166 161 140 148 119 21 353 2 18 2 351 8 360 350 350 337 349 326 312 309 298 312 313 335 324 330 318 311 322 332 332 227
147 142 138 111 172 161 156 150 145 177 177 190 140 123 138 100 64 8 13 17 7 5 358 354 354 344 349 356 320 340 280 214 280 287 323 302 299 300 307 309 307 329 310
181 169 148 181 210 186 165 131 76 129 179 127 118 128 93 69 54 24 25 25 20 351 6 3 4 346 344 21 349 290 342 137 170 311 2 308 299 295 303 293 315 314 307
179 171 166 169 225 194 124 107 110 92 120 158 142 147 89 80 74 43 38 21 19 7 1 358 360 354 347 340 16 330 340 0 339 103 239 349 308 309 315 307 309 312 305
187 151 176 173 205 190 157 166 160 174 170 123 134 102 101 79 74 54 32 21 24 8 6 348 360 344 337 340 334 25 298 303 319 326 348 321 335 297 299 303 308 313 305
69 123 159 182 199 184 186 190 159 113 105 122 126 127 111 101 76 60 37 24 18 21 4 349 345 348 332 326 326 324 313 300 259 263 297 303 303 329 318 316 295 302 301
106 48 177 183 184 175 171 145 130 122 136 131 125 139 140 112 105 63 39 27 23 16 359 343 335 328 327 316 310 305 299 305 313 306 302 305 311 305 316 299 287 287 292